Wind_Speed
43 43 43 44 45 46 48 50 53 55 56 56 51 47 49 56 64 69 68 63 56 55 58 62 68 72 74 73 72 70 68 66 61 55 50 47 45 44 45 46 48 51
45 46 46 46 46 47 50 52 54 56 58 58 53 48 51 59 66 70 68 62 58 57 58 62 68 73 75 75 74 72 71 70 66 60 54 49 46 45 44 45 46 49
48 49 48 49 49 49 51 53 56 58 59 59 54 51 54 60 67 71 68 62 59 59 60 63 69 73 76 77 76 74 72 72 70 65 58 52 48 45 44 44 44 46
49 51 51 51 52 52 53 55 57 59 61 60 56 55 57 62 68 71 68 64 62 62 63 64 69 73 75 77 77 75 74 73 72 68 62 55 50 45 42 42 42 44
50 52 52 53 54 55 55 57 59 60 61 60 57 56 60 64 69 72 71 67 65 65 64 65 69 74 76 77 78 77 74 74 73 70 65 59 52 46 42 40 40 42
51 53 54 54 56 58 58 59 61 61 62 61 57 58 63 65 69 73 73 70 67 65 65 66 69 74 76 77 78 77 75 74 74 72 67 61 54 48 43 40 40 40
53 54 55 56 57 59 59 60 62 63 62 61 59 61 65 65 68 73 73 72 69 66 67 69 71 75 77 77 77 77 76 75 75 73 68 62 55 49 45 43 42 41
55 56 56 58 59 60 60 61 63 63 62 61 61 65 66 64 68 73 74 73 71 69 70 73 76 78 79 78 77 77 77 77 77 74 68 62 55 50 46 44 45 44
57 57 58 59 60 61 61 62 63 64 63 63 64 67 66 64 69 74 74 73 74 73 74 76 78 78 78 78 78 79 79 79 79 76 70 62 55 50 47 45 45 46
58 59 59 61 62 62 62 63 64 65 65 66 68 68 66 65 71 75 74 75 75 75 76 77 78 79 79 80 80 80 82 82 83 79 72 63 56 51 48 46 46 46
60 62 62 62 63 63 63 64 66 68 69 69 70 69 66 66 72 75 75 75 76 76 77 78 79 80 82 82 81 82 84 85 85 82 74 66 58 53 50 47 46 47
63 64 63 63 64 64 65 67 68 69 70 69 70 68 65 67 73 75 75 76 77 77 77 79 81 82 83 82 82 84 86 88 87 84 77 68 60 55 51 49 48 47
63 62 63 65 66 66 67 68 69 70 70 69 70 67 64 67 73 76 77 79 80 79 79 81 83 83 83 83 84 86 88 90 89 85 78 69 61 56 53 52 50 49
55 58 66 69 69 68 67 67 69 69 68 68 67 64 63 68 74 77 80 82 81 80 80 83 85 84 83 83 85 87 90 91 90 87 80 70 62 58 55 54 53 53
51 62 73 71 68 65 63 65 67 66 65 65 64 63 65 70 75 79 83 84 82 81 83 86 86 84 84 85 87 90 91 92 91 87 79 71 64 60 58 57 57 57
58 71 74 69 65 62 62 66 67 66 66 66 66 67 69 72 77 82 85 86 84 84 86 88 87 85 86 87 89 91 92 92 91 85 79 72 66 62 61 60 59 60
70 77 73 66 64 64 66 69 68 67 68 68 68 70 72 75 80 85 87 88 86 86 88 89 88 87 88 90 91 92 92 92 90 85 78 73 68 65 63 61 61 62
75 76 70 66 67 67 68 68 67 66 67 68 70 72 75 79 85 87 88 88 87 87 89 90 89 90 91 92 93 93 93 91 89 83 77 73 70 67 65 64 64 64
72 70 65 64 65 65 65 66 66 65 67 70 72 74 79 84 87 88 88 88 88 88 90 91 91 93 94 94 94 95 93 91 86 80 75 73 72 70 69 68 67 66
64 61 59 59 61 63 65 65 66 67 69 71 73 78 84 88 89 88 88 89 89 89 91 93 94 95 95 94 95 96 93 89 83 77 75 76 75 73 72 71 68 66
52 52 54 59 63 65 66 67 69 71 72 74 77 84 89 91 90 88 89 90 91 92 95 96 97 97 97 96 97 96 92 86 80 77 77 79 78 77 75 73 69 66
48 50 56 64 67 67 69 71 73 74 76 80 85 90 92 92 90 89 90 92 94 96 98 100 100 99 99 99 98 96 90 84 79 78 80 82 81 79 76 73 69 66
51 60 69 72 67 66 70 74 76 79 83 88 91 93 93 91 90 91 92 93 95 97 99 100 100 100 100 100 99 96 90 84 80 80 82 84 83 80 77 73 69 66
69 77 81 75 69 70 75 78 81 86 90 92 93 93 92 90 91 93 95 96 97 98 99 99 99 100 101 100 99 95 89 84 81 82 85 86 84 80 76 71 68 66
79 82 82 78 78 82 84 86 88 91 93 93 93 91 90 91 93 95 97 98 99 99 99 100 101 102 101 100 98 93 88 83 82 84 87 87 83 79 75 71 68 65
81 84 84 83 85 88 91 92 93 93 94 94 91 90 91 93 94 96 97 98 99 100 101 102 103 103 102 100 96 91 86 84 84 86 88 86 82 78 75 71 68 65
Wind_Direction
319 320 321 322 323 324 325 326 328 330 332 334 333 333 334 337 337 338 338 336 335 335 336 336 338 340 340 339 338 337 336 334 330 325 318 310 299 288 280 273 268 264
318 318 319 320 321 322 323 324 326 328 331 333 333 330 331 334 335 336 337 335 333 334 335 336 338 340 341 341 339 338 336 334 332 327 322 315 307 296 285 276 270 265
317 316 316 319 319 319 319 322 324 326 328 331 332 331 330 332 335 336 336 334 332 331 332 334 336 339 341 342 340 338 336 335 332 329 324 319 313 305 293 282 274 268
315 314 314 317 318 317 316 319 323 324 326 328 328 330 330 331 333 335 334 332 331 330 329 331 334 336 339 341 341 339 337 335 332 329 325 320 316 310 300 289 279 272
314 313 313 315 317 317 315 317 321 322 324 325 325 328 329 329 331 333 333 331 330 329 329 329 331 334 337 339 340 339 337 335 332 329 325 321 316 312 305 294 284 276
312 312 313 314 315 317 316 317 318 320 322 323 322 324 326 326 328 331 331 330 328 328 328 328 328 331 334 337 339 339 336 334 332 329 325 320 317 313 307 299 291 283
311 311 312 313 313 315 316 316 316 317 319 321 320 321 323 323 325 328 329 329 328 326 327 328 327 328 332 335 337 338 335 333 331 329 325 320 317 313 307 300 295 290
310 310 311 312 313 315 316 315 314 314 316 318 318 320 320 320 323 327 329 329 328 326 327 328 328 328 330 332 334 335 334 332 330 328 324 319 315 312 307 300 296 292
308 309 311 311 312 314 315 313 312 313 314 315 316 318 318 319 323 327 328 329 328 327 327 328 328 328 329 330 332 333 332 330 329 328 325 319 314 311 308 303 298 295
307 309 310 311 312 313 312 311 311 312 313 313 315 317 317 318 323 327 328 327 327 327 327 327 327 327 328 329 330 330 330 329 328 328 326 320 314 310 308 306 302 298
307 309 310 310 311 311 310 310 310 311 312 312 313 315 315 318 324 326 326 326 326 325 325 326 326 326 327 328 328 328 328 328 327 328 327 322 315 310 307 305 301 298
306 308 309 310 310 308 307 308 309 310 310 310 312 314 314 317 323 325 324 324 324 324 324 325 325 325 326 327 328 327 327 326 326 327 327 322 315 310 307 304 301 298
304 305 308 308 307 306 305 307 308 308 309 309 312 312 312 316 322 323 323 322 322 323 323 323 323 324 325 327 327 326 326 325 325 326 326 322 316 311 308 304 302 299
299 302 307 307 304 302 302 305 307 308 308 310 311 310 309 314 319 321 321 322 321 321 321 322 323 324 325 326 325 325 325 324 323 324 325 322 317 312 309 306 304 301
293 300 305 304 302 301 301 306 309 308 310 311 310 308 308 311 316 319 320 320 319 318 319 321 323 324 325 325 324 324 324 323 323 323 324 322 318 313 310 308 306 303
294 301 304 301 301 300 301 306 309 309 311 311 309 307 307 309 313 316 318 318 317 317 319 321 323 324 324 323 323 324 324 323 323 323 323 321 318 314 312 309 307 305
294 300 300 298 298 297 299 305 308 310 311 310 308 307 307 308 311 312 315 316 316 316 319 321 322 322 322 322 323 324 323 323 323 323 322 321 318 315 312 311 309 307
292 297 296 294 295 296 300 305 308 310 311 309 307 306 307 308 309 309 312 315 315 315 318 320 321 320 320 321 323 323 323 322 323 322 322 321 319 316 314 313 311 309
289 293 293 294 295 298 300 304 308 309 308 307 306 305 306 307 307 308 311 314 314 314 316 318 319 319 320 321 322 323 323 323 322 322 321 320 319 317 315 314 313 310
288 289 291 294 295 296 299 302 305 306 305 304 303 303 305 306 307 308 311 313 313 313 314 316 317 318 319 321 322 323 323 322 322 321 321 320 319 318 316 315 313 311
281 285 290 294 293 293 296 299 302 302 302 302 302 303 305 306 306 308 310 311 311 312 313 314 316 318 320 321 322 322 322 321 320 320 320 320 320 318 317 316 314 311
276 284 293 297 294 292 294 297 299 300 301 302 303 303 304 305 306 307 309 310 311 312 313 315 317 319 319 320 321 321 320 319 318 318 320 320 319 318 316 315 314 312
280 287 294 296 293 292 294 295 296 298 300 303 303 303 303 304 305 307 308 310 311 312 313 315 317 318 318 319 320 320 319 318 317 317 319 320 320 318 316 315 313 312
287 289 291 290 289 291 294 295 295 298 301 302 302 302 303 304 305 307 308 309 310 311 313 314 315 316 317 318 319 319 319 318 317 318 319 320 319 318 316 314 313 312
289 289 289 288 287 289 293 295 296 298 300 301 302 302 303 304 305 306 307 308 310 311 312 313 314 315 317 318 318 318 318 317 317 318 319 319 318 317 315 314 313 313
286 285 284 285 285 287 292 295 296 297 299 300 301 301 302 303 304 305 307 308 309 310 312 313 314 315 317 317 317 316 316 316 317 318 319 319 318 316 315 314 314 313
Height
10936 10934 10931 10927 10924 10921 10919 10916 10914 10911 10908 10904 10901 10897 10894 10891 10889 10886 10882 10878 10874 10870 10866 10862 10858 10852 10847 10842 10837 10832 10827 10823 10819 10814 10810 10806 10802 10799 10796 10795 10795 10795
10931 10928 10926 10923 10920 10918 10915 10912 10909 10906 10903 10899 10896 10893 10891 10888 10885 10881 10878 10874 10870 10866 10861 10857 10852 10847 10842 10837 10832 10827 10821 10817 10812 10808 10804 10800 10795 10792 10789 10788 10788 10788
10927 10923 10921 10918 10916 10913 10911 10908 10905 10901 10898 10894 10891 10889 10886 10883 10879 10876 10873 10870 10866 10862 10857 10852 10847 10841 10836 10831 10826 10821 10816 10811 10806 10801 10797 10793 10790 10786 10783 10781 10781 10781
10922 10919 10916 10913 10911 10909 10906 10904 10900 10896 10893 10889 10886 10883 10880 10877 10874 10871 10868 10864 10860 10856 10850 10846 10841 10836 10830 10825 10820 10815 10810 10805 10800 10795 10791 10787 10784 10781 10777 10775 10774 10774
10918 10914 10911 10908 10906 10903 10901 10898 10895 10892 10888 10884 10881 10877 10874 10871 10868 10865 10862 10858 10854 10849 10844 10840 10835 10830 10825 10820 10815 10810 10805 10800 10795 10790 10785 10781 10778 10775 10772 10768 10767 10766
10913 10909 10906 10903 10900 10897 10894 10892 10889 10886 10883 10879 10876 10873 10870 10866 10863 10860 10857 10853 10849 10845 10839 10834 10829 10825 10820 10814 10809 10803 10798 10794 10790 10786 10781 10776 10772 10769 10766 10763 10760 10759
10908 10905 10902 10899 10895 10892 10889 10886 10883 10880 10877 10874 10871 10868 10866 10863 10860 10856 10853 10849 10844 10840 10835 10830 10825 10820 10814 10808 10803 10798 10793 10789 10784 10780 10776 10772 10768 10764 10761 10757 10754 10752
10903 10900 10897 10894 10890 10887 10884 10881 10878 10875 10872 10869 10866 10863 10860 10858 10855 10851 10847 10843 10838 10834 10829 10823 10818 10813 10808 10802 10797 10792 10787 10783 10780 10776 10772 10768 10764 10760 10757 10753 10749 10746
10898 10895 10893 10889 10885 10882 10879 10876 10873 10870 10867 10864 10861 10858 10854 10851 10848 10844 10839 10835 10830 10825 10820 10815 10811 10806 10802 10797 10792 10787 10782 10777 10774 10771 10767 10762 10758 10755 10752 10748 10744 10741
10893 10890 10888 10884 10880 10877 10873 10870 10867 10863 10861 10857 10854 10851 10847 10843 10839 10835 10831 10827 10823 10818 10813 10809 10804 10799 10795 10791 10786 10781 10776 10771 10766 10763 10759 10755 10752 10748 10746 10742 10738 10734
10886 10884 10881 10877 10873 10870 10867 10864 10860 10857 10854 10850 10846 10842 10838 10835 10831 10827 10824 10820 10816 10812 10807 10803 10798 10792 10788 10784 10779 10774 10768 10763 10758 10754 10751 10747 10744 10741 10738 10736 10732 10728
10879 10876 10874 10870 10866 10863 10860 10857 10854 10850 10847 10843 10839 10835 10831 10828 10824 10820 10818 10814 10810 10806 10801 10797 10791 10786 10781 10776 10771 10765 10760 10755 10750 10747 10743 10740 10736 10732 10729 10727 10724 10721
10872 10868 10866 10863 10859 10856 10853 10850 10848 10844 10840 10836 10832 10829 10825 10821 10818 10814 10811 10808 10803 10799 10795 10791 10786 10780 10774 10769 10764 10758 10753 10747 10742 10739 10736 10732 10728 10724 10720 10717 10715 10712
10866 10861 10859 10856 10853 10850 10846 10843 10840 10837 10833 10830 10826 10823 10819 10815 10811 10807 10804 10800 10796 10792 10788 10784 10779 10773 10767 10762 10757 10752 10746 10739 10734 10731 10728 10724 10719 10715 10711 10708 10705 10702
10862 10854 10850 10848 10845 10842 10839 10836 10833 10830 10826 10823 10820 10816 10813 10809 10805 10801 10798 10794 10789 10785 10781 10776 10771 10765 10759 10755 10750 10745 10739 10731 10725 10721 10719 10714 10710 10705 10701 10698 10695 10691
10854 10846 10840 10838 10836 10833 10831 10828 10825 10822 10818 10815 10812 10808 10805 10801 10797 10794 10790 10786 10781 10776 10771 10766 10762 10757 10752 10748 10743 10738 10731 10723 10717 10712 10709 10705 10701 10697 10693 10689 10685 10681
10843 10837 10832 10829 10827 10824 10823 10820 10817 10813 10810 10807 10803 10800 10796 10793 10789 10786 10783 10778 10773 10767 10762 10757 10753 10750 10746 10741 10736 10731 10723 10716 10709 10704 10700 10696 10691 10688 10685 10681 10676 10671
10834 10830 10825 10822 10819 10816 10814 10811 10808 10805 10802 10799 10796 10792 10788 10785 10782 10779 10775 10770 10765 10759 10754 10749 10745 10742 10738 10734 10729 10723 10715 10708 10701 10696 10691 10687 10682 10678 10675 10672 10667 10661
10827 10822 10818 10815 10812 10809 10806 10803 10800 10798 10795 10792 10788 10784 10781 10778 10775 10771 10767 10763 10757 10752 10747 10743 10738 10734 10730 10726 10720 10714 10707 10700 10693 10687 10683 10678 10674 10669 10666 10662 10657 10651
10818 10813 10809 10807 10804 10801 10798 10795 10793 10791 10788 10785 10781 10777 10774 10771 10767 10763 10760 10755 10750 10745 10741 10737 10732 10727 10723 10718 10712 10704 10697 10691 10685 10679 10674 10669 10664 10660 10656 10652 10647 10641
10808 10804 10802 10799 10797 10794 10791 10788 10786 10783 10780 10778 10774 10770 10766 10762 10759 10755 10752 10748 10742 10737 10733 10728 10723 10718 10713 10708 10702 10696 10689 10683 10678 10672 10666 10660 10655 10651 10646 10642 10637 10632
10797 10794 10793 10791 10789 10786 10783 10780 10777 10774 10772 10770 10767 10762 10757 10753 10749 10746 10744 10740 10733 10726 10721 10716 10711 10707 10702 10698 10693 10687 10681 10676 10671 10664 10657 10652 10646 10641 10636 10632 10627 10622
10789 10785 10784 10783 10782 10778 10775 10772 10769 10767 10764 10761 10757 10752 10747 10742 10739 10736 10734 10731 10725 10718 10712 10707 10703 10698 10693 10689 10684 10678 10673 10667 10662 10655 10649 10642 10637 10631 10627 10622 10616 10611
10783 10779 10777 10776 10774 10770 10766 10763 10762 10759 10755 10752 10747 10742 10737 10732 10728 10726 10723 10720 10715 10710 10705 10700 10696 10692 10687 10681 10675 10669 10664 10658 10652 10646 10639 10633 10627 10622 10617 10613 10607 10602
10779 10772 10768 10768 10767 10762 10757 10756 10754 10751 10747 10742 10737 10732 10727 10723 10720 10716 10713 10709 10704 10700 10696 10692 10687 10683 10678 10671 10665 10660 10655 10649 10643 10637 10631 10624 10618 10613 10608 10603 10599 10593
10773 10764 10760 10760 10759 10753 10749 10748 10746 10743 10738 10734 10729 10724 10719 10715 10712 10708 10703 10699 10694 10689 10685 10682 10678 10673 10668 10661 10656 10651 10647 10642 10636 10629 10622 10616 10609 10603 10597 10593 10589 10584